Location: Erp
(42.9417°N, 1.2009°E)
Time: 05:07:42
(UTC+00:00)

Cosmos 2369 Rocket - Visible Passes

Search period start: 19 April 2026 00:00
Search period end: 29 April 2026 00:00
Orbit: 829 x 850 km, 71.0° (Epoch: 18 April)

Date Brightness Start Highest point End Pass type
(mag) Time Alt. Az. Time Alt. Az. Time Alt. Az.
19 Apr 2.5 20:53:57 10° NNW 20:59:22 49° ENE 21:00:22 44° E visible
19 Apr 3.9 22:38:36 10° NW 22:42:09 23° W 22:42:09 23° W visible
20 Apr 2.6 20:38:13 10° NNW 20:43:37 46° ENE 20:45:13 36° ESE visible
20 Apr 3.7 22:22:46 10° NW 22:26:59 26° W 22:26:59 26° W visible
21 Apr 2.7 20:22:30 10° NNW 20:27:51 43° ENE 20:30:05 30° ESE visible
21 Apr 3.6 22:06:56 10° NW 22:11:35 28° WSW 22:11:51 28° WSW visible
22 Apr 2.8 20:06:47 10° NNW 20:12:04 41° ENE 20:14:59 23° ESE visible
22 Apr 3.5 21:51:06 10° NW 21:55:52 30° WSW 21:56:46 28° WSW visible
23 Apr 2.9 19:51:05 10° N 19:56:17 39° ENE 19:59:56 18° ESE visible
23 Apr 3.4 21:35:17 10° NW 21:40:09 32° WSW 21:41:44 27° SW visible
24 Apr 2.9 19:35:22 10° N 19:40:31 36° ENE 19:44:57 13° ESE visible
24 Apr 3.4 21:19:27 10° NW 21:24:26 34° WSW 21:26:44 24° SSW visible
25 Apr 3.0 19:19:39 10° N 19:24:44 34° NE 19:29:48 10° ESE visible
25 Apr 3.3 21:03:39 10° NW 21:08:43 36° WSW 21:11:47 21° SSW visible
26 Apr 3.3 20:47:51 10° NW 20:53:00 39° WSW 20:56:53 16° SSW visible
27 Apr 3.2 20:32:03 10° NW 20:37:16 41° WSW 20:42:04 12° S visible
28 Apr 3.1 20:16:16 10° NW 20:21:33 44° WSW 20:26:48 10° S visible
